Year,Month,Day,Hour,Minute,Value (Times are PST for temperature in C)
2015,02,17,00,00,5.60
2015,02,17,00,01,5.60
2015,02,17,00,02,5.60
2015,02,17,00,03,5.50
2015,02,17,00,04,5.50
2015,02,17,00,05,5.50
2015,02,17,00,06,5.40
2015,02,17,00,07,5.40
2015,02,17,00,08,5.30
2015,02,17,00,09,5.30
2015,02,17,00,10,5.20
2015,02,17,00,11,5.20
2015,02,17,00,12,5.20
2015,02,17,00,13,5.10
2015,02,17,00,14,5.10
2015,02,17,00,15,5.10
2015,02,17,00,16,5.00
2015,02,17,00,17,5.00
2015,02,17,00,18,5.00
2015,02,17,00,19,4.90
2015,02,17,00,20,4.90
2015,02,17,00,21,4.90
2015,02,17,00,22,4.80
2015,02,17,00,23,4.80
2015,02,17,00,24,4.80
2015,02,17,00,25,4.80
2015,02,17,00,26,4.70
2015,02,17,00,27,4.70
2015,02,17,00,28,4.70
2015,02,17,00,29,4.70
2015,02,17,00,30,4.60
2015,02,17,00,31,4.60
2015,02,17,00,32,4.60
2015,02,17,00,33,4.50
2015,02,17,00,34,4.50
2015,02,17,00,35,4.50
2015,02,17,00,36,4.40
2015,02,17,00,37,4.40
2015,02,17,00,38,4.40
2015,02,17,00,39,4.40
2015,02,17,00,40,4.30
2015,02,17,00,41,4.30
2015,02,17,00,42,4.30
2015,02,17,00,43,4.30
2015,02,17,00,44,4.30
2015,02,17,00,45,4.30
2015,02,17,00,46,4.20
2015,02,17,00,47,4.20
2015,02,17,00,48,4.20
2015,02,17,00,49,4.20
2015,02,17,00,50,4.20
2015,02,17,00,51,4.20
2015,02,17,00,52,4.20
2015,02,17,00,53,4.20
2015,02,17,00,54,4.20
2015,02,17,00,55,4.20
2015,02,17,00,56,4.20
2015,02,17,00,57,4.20
2015,02,17,00,58,4.20
2015,02,17,00,59,4.20
2015,02,17,01,00,4.10
2015,02,17,01,01,4.10
2015,02,17,01,02,4.10
2015,02,17,01,03,4.10
2015,02,17,01,04,4.10
2015,02,17,01,05,4.10
2015,02,17,01,06,4.10
2015,02,17,01,07,4.10
2015,02,17,01,08,4.10
2015,02,17,01,09,4.10
2015,02,17,01,10,4.10
2015,02,17,01,11,4.10
2015,02,17,01,12,4.10
2015,02,17,01,13,4.00
2015,02,17,01,14,4.00
2015,02,17,01,15,4.10
2015,02,17,01,16,4.10
2015,02,17,01,17,4.00
2015,02,17,01,18,4.00
2015,02,17,01,19,4.00
2015,02,17,01,20,4.00
2015,02,17,01,21,3.90
2015,02,17,01,22,3.90
2015,02,17,01,23,3.90
2015,02,17,01,24,3.90
2015,02,17,01,25,3.90
2015,02,17,01,26,3.90
2015,02,17,01,27,3.90
2015,02,17,01,28,3.90
2015,02,17,01,29,3.90
2015,02,17,01,30,3.90
2015,02,17,01,31,3.90
2015,02,17,01,32,3.90
2015,02,17,01,33,3.90
2015,02,17,01,34,3.90
2015,02,17,01,35,3.90
2015,02,17,01,36,3.90
2015,02,17,01,37,3.90
2015,02,17,01,38,3.90
2015,02,17,01,39,3.90
2015,02,17,01,40,3.90
2015,02,17,01,41,3.90
2015,02,17,01,42,3.90
2015,02,17,01,43,3.90
2015,02,17,01,44,3.90
2015,02,17,01,45,3.90
2015,02,17,01,46,3.80
2015,02,17,01,47,3.90
2015,02,17,01,48,3.90
2015,02,17,01,49,3.90
2015,02,17,01,50,3.80
2015,02,17,01,51,3.80
2015,02,17,01,52,3.80
2015,02,17,01,53,3.80
2015,02,17,01,54,3.80
2015,02,17,01,55,3.80
2015,02,17,01,56,3.80
2015,02,17,01,57,3.80
2015,02,17,01,58,3.80
2015,02,17,01,59,3.80
2015,02,17,02,00,3.80
2015,02,17,02,01,3.90
2015,02,17,02,02,3.90
2015,02,17,02,03,3.90
2015,02,17,02,04,4.00
2015,02,17,02,05,4.10
2015,02,17,02,06,4.10
2015,02,17,02,07,4.20
2015,02,17,02,08,4.30
2015,02,17,02,09,4.40
2015,02,17,02,10,4.50
2015,02,17,02,11,4.50
2015,02,17,02,12,4.60
2015,02,17,02,13,4.70
2015,02,17,02,14,4.70
2015,02,17,02,15,4.80
2015,02,17,02,16,4.80
2015,02,17,02,17,4.90
2015,02,17,02,18,4.90
2015,02,17,02,19,4.90
2015,02,17,02,20,4.90
2015,02,17,02,21,4.90
2015,02,17,02,22,4.90
2015,02,17,02,23,4.90
2015,02,17,02,24,4.90
2015,02,17,02,25,4.90
2015,02,17,02,26,5.00
2015,02,17,02,27,5.00
2015,02,17,02,28,5.10
2015,02,17,02,29,5.10
2015,02,17,02,30,5.10
2015,02,17,02,31,5.20
2015,02,17,02,32,5.20
2015,02,17,02,33,5.20
2015,02,17,02,34,5.30
2015,02,17,02,35,5.30
2015,02,17,02,36,5.30
2015,02,17,02,37,5.30
2015,02,17,02,38,5.30
2015,02,17,02,39,5.30
2015,02,17,02,40,5.40
2015,02,17,02,41,5.40
2015,02,17,02,42,5.40
2015,02,17,02,43,5.40
2015,02,17,02,44,5.40
2015,02,17,02,45,5.40
2015,02,17,02,46,5.40
2015,02,17,02,47,5.40
2015,02,17,02,48,5.40
2015,02,17,02,49,5.40
2015,02,17,02,50,5.40
2015,02,17,02,51,5.40
2015,02,17,02,52,5.40
2015,02,17,02,53,5.40
2015,02,17,02,54,5.40
2015,02,17,02,55,5.40
2015,02,17,02,56,5.40
2015,02,17,02,57,5.40
2015,02,17,02,58,5.40
2015,02,17,02,59,5.40
2015,02,17,03,00,5.40
2015,02,17,03,01,5.50
2015,02,17,03,02,5.50
2015,02,17,03,03,5.50
2015,02,17,03,04,5.50
2015,02,17,03,05,5.50
2015,02,17,03,06,5.50
2015,02,17,03,07,5.50
2015,02,17,03,08,5.60
2015,02,17,03,09,5.60
2015,02,17,03,10,5.60
2015,02,17,03,11,5.60
2015,02,17,03,12,5.60
2015,02,17,03,13,5.60
2015,02,17,03,14,5.60
2015,02,17,03,15,5.60
2015,02,17,03,16,5.60
2015,02,17,03,17,5.70
2015,02,17,03,18,5.70
2015,02,17,03,19,5.70
2015,02,17,03,20,5.70
2015,02,17,03,21,5.70
2015,02,17,03,22,5.80
2015,02,17,03,23,5.80
2015,02,17,03,24,5.80
2015,02,17,03,25,5.80
2015,02,17,03,26,5.80
2015,02,17,03,27,5.80
2015,02,17,03,28,5.80
2015,02,17,03,29,5.90
2015,02,17,03,30,6.00
2015,02,17,03,31,6.10
2015,02,17,03,32,6.20
2015,02,17,03,33,6.20
2015,02,17,03,34,6.30
2015,02,17,03,35,6.30
2015,02,17,03,36,6.30
2015,02,17,03,37,6.30
2015,02,17,03,38,6.40
2015,02,17,03,39,6.40
2015,02,17,03,40,6.40
2015,02,17,03,41,6.50
2015,02,17,03,42,6.50
2015,02,17,03,43,6.60
2015,02,17,03,44,6.60
2015,02,17,03,45,6.60
2015,02,17,03,46,6.60
2015,02,17,03,47,6.70
2015,02,17,03,48,6.70
2015,02,17,03,49,6.70
2015,02,17,03,50,6.70
2015,02,17,03,51,6.70
2015,02,17,03,52,6.70
2015,02,17,03,53,6.70
2015,02,17,03,54,6.70
2015,02,17,03,55,6.80
2015,02,17,03,56,6.80
2015,02,17,03,57,6.80
2015,02,17,03,58,6.80
2015,02,17,03,59,6.80
2015,02,17,04,00,6.80
2015,02,17,04,01,6.90
2015,02,17,04,02,6.90
2015,02,17,04,03,6.90
2015,02,17,04,04,6.90
2015,02,17,04,05,6.90
2015,02,17,04,06,6.90
2015,02,17,04,07,6.90
2015,02,17,04,08,6.90
2015,02,17,04,09,6.90
2015,02,17,04,10,7.00
2015,02,17,04,11,7.00
2015,02,17,04,12,7.00
2015,02,17,04,13,7.00
2015,02,17,04,14,7.10
2015,02,17,04,15,7.10
2015,02,17,04,16,7.10
2015,02,17,04,17,7.10
2015,02,17,04,18,7.10
2015,02,17,04,19,7.10
2015,02,17,04,20,7.10
2015,02,17,04,21,7.10
2015,02,17,04,22,7.10
2015,02,17,04,23,7.10
2015,02,17,04,24,7.10
2015,02,17,04,25,7.10
2015,02,17,04,26,7.10
2015,02,17,04,27,7.20
2015,02,17,04,28,7.20
2015,02,17,04,29,7.10
2015,02,17,04,30,7.10
2015,02,17,04,31,7.10
2015,02,17,04,32,7.10
2015,02,17,04,33,7.10
2015,02,17,04,34,7.10
2015,02,17,04,35,7.10
2015,02,17,04,36,7.10
2015,02,17,04,37,7.10
2015,02,17,04,38,7.10
2015,02,17,04,39,7.10
2015,02,17,04,40,7.10
2015,02,17,04,41,7.10
2015,02,17,04,42,7.10
2015,02,17,04,43,7.10
2015,02,17,04,44,7.10
2015,02,17,04,45,7.10
2015,02,17,04,46,7.10
2015,02,17,04,47,7.20
2015,02,17,04,48,7.20
2015,02,17,04,49,7.20
2015,02,17,04,50,7.30
2015,02,17,04,51,7.30
2015,02,17,04,52,7.40
2015,02,17,04,53,7.40
2015,02,17,04,54,7.40
2015,02,17,04,55,7.50
2015,02,17,04,56,7.50
2015,02,17,04,57,7.60
2015,02,17,04,58,7.60
2015,02,17,04,59,7.60
2015,02,17,05,00,7.60
2015,02,17,05,01,7.60
2015,02,17,05,02,7.60
2015,02,17,05,03,7.60
2015,02,17,05,04,7.60
2015,02,17,05,05,7.50
2015,02,17,05,06,7.50
2015,02,17,05,07,7.50
2015,02,17,05,08,7.40
2015,02,17,05,09,7.40
2015,02,17,05,10,7.40
2015,02,17,05,11,7.40
2015,02,17,05,12,7.30
2015,02,17,05,13,7.30
2015,02,17,05,14,7.30
2015,02,17,05,15,7.30
2015,02,17,05,16,7.20
2015,02,17,05,17,7.20
2015,02,17,05,18,7.20
2015,02,17,05,19,7.20
2015,02,17,05,20,7.10
2015,02,17,05,21,7.10
2015,02,17,05,22,7.10
2015,02,17,05,23,7.00
2015,02,17,05,24,7.00
2015,02,17,05,25,7.00
2015,02,17,05,26,6.90
2015,02,17,05,27,6.90
2015,02,17,05,28,6.90
2015,02,17,05,29,6.90
2015,02,17,05,30,6.90
2015,02,17,05,31,6.90
2015,02,17,05,32,6.90
2015,02,17,05,33,6.90
2015,02,17,05,34,6.90
2015,02,17,05,35,6.90
2015,02,17,05,36,6.90
2015,02,17,05,37,6.90
2015,02,17,05,38,6.90
2015,02,17,05,39,6.90
2015,02,17,05,40,6.90
2015,02,17,05,41,6.90
2015,02,17,05,42,6.90
2015,02,17,05,43,6.90
2015,02,17,05,44,6.90
2015,02,17,05,45,6.90
2015,02,17,05,46,6.90
2015,02,17,05,47,6.90
2015,02,17,05,48,6.90
2015,02,17,05,49,6.80
2015,02,17,05,50,6.80
2015,02,17,05,51,6.70
2015,02,17,05,52,6.70
2015,02,17,05,53,6.70
2015,02,17,05,54,6.70
2015,02,17,05,55,6.60
2015,02,17,05,56,6.60
2015,02,17,05,57,6.50
2015,02,17,05,58,6.50
2015,02,17,05,59,6.40
2015,02,17,06,00,6.40
2015,02,17,06,01,6.30
2015,02,17,06,02,6.30
2015,02,17,06,03,6.20
2015,02,17,06,04,6.20
2015,02,17,06,05,6.10
2015,02,17,06,06,6.10
2015,02,17,06,07,6.10
2015,02,17,06,08,6.10
2015,02,17,06,09,6.10
2015,02,17,06,10,6.00
2015,02,17,06,11,6.00
2015,02,17,06,12,6.00
2015,02,17,06,13,5.90
2015,02,17,06,14,5.90
2015,02,17,06,15,5.80
2015,02,17,06,16,5.80
2015,02,17,06,17,5.70
2015,02,17,06,18,5.70
2015,02,17,06,19,5.70
2015,02,17,06,20,5.60
2015,02,17,06,21,5.60
2015,02,17,06,22,5.60
2015,02,17,06,23,5.60
2015,02,17,06,24,5.60
2015,02,17,06,25,5.60
2015,02,17,06,26,5.60
2015,02,17,06,27,5.60
2015,02,17,06,28,5.70
2015,02,17,06,29,5.70
2015,02,17,06,30,5.80
2015,02,17,06,31,5.80
2015,02,17,06,32,5.80
2015,02,17,06,33,5.90
2015,02,17,06,34,5.90
2015,02,17,06,35,6.00
2015,02,17,06,36,6.00
2015,02,17,06,37,6.10
2015,02,17,06,38,6.10
2015,02,17,06,39,6.20
2015,02,17,06,40,6.20
2015,02,17,06,41,6.20
2015,02,17,06,42,6.20
2015,02,17,06,43,6.20
2015,02,17,06,44,6.30
2015,02,17,06,45,6.30
2015,02,17,06,46,6.40
2015,02,17,06,47,6.40
2015,02,17,06,48,6.40
2015,02,17,06,49,6.40
2015,02,17,06,50,6.40
2015,02,17,06,51,6.40
2015,02,17,06,52,6.40
2015,02,17,06,53,6.40
2015,02,17,06,54,6.50
2015,02,17,06,55,6.50
2015,02,17,06,56,6.50
2015,02,17,06,57,6.60
2015,02,17,06,58,6.60
2015,02,17,06,59,6.60
2015,02,17,07,00,6.60
2015,02,17,07,01,6.60
2015,02,17,07,02,6.60
2015,02,17,07,03,6.60
2015,02,17,07,04,6.60
2015,02,17,07,05,6.60
2015,02,17,07,06,6.60
2015,02,17,07,07,6.60
2015,02,17,07,08,6.60
2015,02,17,07,09,6.60
2015,02,17,07,10,6.50
2015,02,17,07,11,6.50
2015,02,17,07,12,6.50
2015,02,17,07,13,6.40
2015,02,17,07,14,6.40
2015,02,17,07,15,6.30
2015,02,17,07,16,6.30
2015,02,17,07,17,6.20
2015,02,17,07,18,6.20
2015,02,17,07,19,6.10
2015,02,17,07,20,6.10
2015,02,17,07,21,6.10
2015,02,17,07,22,6.10
2015,02,17,07,23,6.10
2015,02,17,07,24,6.10
2015,02,17,07,25,6.10
2015,02,17,07,26,6.10
2015,02,17,07,27,6.10
2015,02,17,07,28,6.10
2015,02,17,07,29,6.10
2015,02,17,07,30,6.10
2015,02,17,07,31,6.20
2015,02,17,07,32,6.20
2015,02,17,07,33,6.20
2015,02,17,07,34,6.20
2015,02,17,07,35,6.20
2015,02,17,07,36,6.20
2015,02,17,07,37,6.20
2015,02,17,07,38,6.10
2015,02,17,07,39,6.10
2015,02,17,07,40,6.10
2015,02,17,07,41,6.10
2015,02,17,07,42,6.10
2015,02,17,07,43,6.10
2015,02,17,07,44,6.10
2015,02,17,07,45,6.10
2015,02,17,07,46,6.10
2015,02,17,07,47,6.10
2015,02,17,07,48,6.10
2015,02,17,07,49,6.20
2015,02,17,07,50,6.20
2015,02,17,07,51,6.30
2015,02,17,07,52,6.30
2015,02,17,07,53,6.30
2015,02,17,07,54,6.40
2015,02,17,07,55,6.60
2015,02,17,07,56,6.70
2015,02,17,07,57,6.80
2015,02,17,07,58,6.90
2015,02,17,07,59,7.00
2015,02,17,08,00,7.10
2015,02,17,08,01,7.10
2015,02,17,08,02,7.20
2015,02,17,08,03,7.20
2015,02,17,08,04,7.20
2015,02,17,08,05,7.20
2015,02,17,08,06,7.20
2015,02,17,08,07,7.20
2015,02,17,08,08,7.20
2015,02,17,08,09,7.20
2015,02,17,08,10,7.20
2015,02,17,08,11,7.20
2015,02,17,08,12,7.20
2015,02,17,08,13,7.20
2015,02,17,08,14,7.30
2015,02,17,08,15,7.30
2015,02,17,08,16,7.40
2015,02,17,08,17,7.40
2015,02,17,08,18,7.40
2015,02,17,08,19,7.50
2015,02,17,08,20,7.60
2015,02,17,08,21,7.60
2015,02,17,08,22,7.70
2015,02,17,08,23,7.70
2015,02,17,08,24,7.80
2015,02,17,08,25,7.80
2015,02,17,08,26,7.90
2015,02,17,08,27,7.90
2015,02,17,08,28,7.90
2015,02,17,08,29,8.00
2015,02,17,08,30,8.10
2015,02,17,08,31,8.10
2015,02,17,08,32,8.20
2015,02,17,08,33,8.20
2015,02,17,08,34,8.30
2015,02,17,08,35,8.40
2015,02,17,08,36,8.50
2015,02,17,08,37,8.60
2015,02,17,08,38,8.60
2015,02,17,08,39,8.70
2015,02,17,08,40,8.80
2015,02,17,08,41,8.80
2015,02,17,08,42,8.90
2015,02,17,08,43,8.90
2015,02,17,08,44,8.90
2015,02,17,08,45,9.00
2015,02,17,08,46,9.00
2015,02,17,08,47,9.10
2015,02,17,08,48,9.10
2015,02,17,08,49,9.20
2015,02,17,08,50,9.20
2015,02,17,08,51,9.20
2015,02,17,08,52,9.20
2015,02,17,08,53,9.20
2015,02,17,08,54,9.20
2015,02,17,08,55,9.20
2015,02,17,08,56,9.30
2015,02,17,08,57,9.30
2015,02,17,08,58,9.30
2015,02,17,08,59,9.30
2015,02,17,09,00,9.30
2015,02,17,09,01,9.30
2015,02,17,09,02,9.40
2015,02,17,09,03,9.40
2015,02,17,09,04,9.40
2015,02,17,09,05,9.40
2015,02,17,09,06,9.50
2015,02,17,09,07,9.50
2015,02,17,09,08,9.50
2015,02,17,09,09,9.60
2015,02,17,09,10,9.60
2015,02,17,09,11,9.70
2015,02,17,09,12,9.70
2015,02,17,09,13,9.80
2015,02,17,09,14,9.80
2015,02,17,09,15,9.90
2015,02,17,09,16,9.90
2015,02,17,09,17,9.90
2015,02,17,09,18,10.00
2015,02,17,09,19,10.00
2015,02,17,09,20,10.00
2015,02,17,09,21,10.00
2015,02,17,09,22,10.00
2015,02,17,09,23,10.00
2015,02,17,09,24,10.00
2015,02,17,09,25,10.10
2015,02,17,09,26,10.10
2015,02,17,09,27,10.10
2015,02,17,09,28,10.10
2015,02,17,09,29,10.10
2015,02,17,09,30,10.10
2015,02,17,09,31,10.10
2015,02,17,09,32,10.10
2015,02,17,09,33,10.10
2015,02,17,09,34,10.10
2015,02,17,09,35,10.10
2015,02,17,09,36,10.20
2015,02,17,09,37,10.20
2015,02,17,09,38,10.20
2015,02,17,09,39,10.10
2015,02,17,09,40,10.10
2015,02,17,09,41,10.10
2015,02,17,09,42,10.10
2015,02,17,09,43,10.10
2015,02,17,09,44,10.10
2015,02,17,09,45,10.10
2015,02,17,09,46,10.20
2015,02,17,09,47,10.20
2015,02,17,09,48,10.20
2015,02,17,09,49,10.20
2015,02,17,09,50,10.20
2015,02,17,09,51,10.30
2015,02,17,09,52,10.30
2015,02,17,09,53,10.30
2015,02,17,09,54,10.30
2015,02,17,09,55,10.40
2015,02,17,09,56,10.40
2015,02,17,09,57,10.40
2015,02,17,09,58,10.40
2015,02,17,09,59,10.50
2015,02,17,10,00,10.50
2015,02,17,10,01,10.50
2015,02,17,10,02,10.60
2015,02,17,10,03,10.60
2015,02,17,10,04,10.60
2015,02,17,10,05,10.60
2015,02,17,10,06,10.60
2015,02,17,10,07,10.60
2015,02,17,10,08,10.60
2015,02,17,10,09,10.60
2015,02,17,10,10,10.60
2015,02,17,10,11,10.60
2015,02,17,10,12,10.60
2015,02,17,10,13,10.60
2015,02,17,10,14,10.70
2015,02,17,10,15,10.70
2015,02,17,10,16,10.70
2015,02,17,10,17,10.80
2015,02,17,10,18,10.80
2015,02,17,10,19,10.80
2015,02,17,10,20,10.90
2015,02,17,10,21,10.90
2015,02,17,10,22,10.90
2015,02,17,10,23,10.90
2015,02,17,10,24,10.90
2015,02,17,10,25,10.90
2015,02,17,10,26,10.80
2015,02,17,10,27,10.90
2015,02,17,10,28,10.90
2015,02,17,10,29,10.90
2015,02,17,10,30,10.90
2015,02,17,10,31,10.90
2015,02,17,10,32,10.90
2015,02,17,10,33,10.90
2015,02,17,10,34,10.90
2015,02,17,10,35,11.00
2015,02,17,10,36,11.00
2015,02,17,10,37,11.00
2015,02,17,10,38,11.10
2015,02,17,10,39,11.10
2015,02,17,10,40,11.20
2015,02,17,10,41,11.20
2015,02,17,10,42,11.30
2015,02,17,10,43,11.30
2015,02,17,10,44,11.30
2015,02,17,10,45,11.30
2015,02,17,10,46,11.40
2015,02,17,10,47,11.40
2015,02,17,10,48,11.50
2015,02,17,10,49,11.50
2015,02,17,10,50,11.60
2015,02,17,10,51,11.60
2015,02,17,10,52,11.70
2015,02,17,10,53,11.70
2015,02,17,10,54,11.80
2015,02,17,10,55,11.80
2015,02,17,10,56,11.70
2015,02,17,10,57,11.70
2015,02,17,10,58,11.60
2015,02,17,10,59,11.50
2015,02,17,11,00,11.40
2015,02,17,11,01,11.40
2015,02,17,11,02,11.40
2015,02,17,11,03,11.40
2015,02,17,11,04,11.40
2015,02,17,11,05,11.40
2015,02,17,11,06,11.50
2015,02,17,11,07,11.50
2015,02,17,11,08,11.50
2015,02,17,11,09,11.50
2015,02,17,11,10,11.50
2015,02,17,11,11,11.50
2015,02,17,11,12,11.60
2015,02,17,11,13,11.60
2015,02,17,11,14,11.60
2015,02,17,11,15,11.60
2015,02,17,11,16,11.60
2015,02,17,11,17,11.70
2015,02,17,11,18,11.70
2015,02,17,11,19,11.70
2015,02,17,11,20,11.70
2015,02,17,11,21,11.70
2015,02,17,11,22,11.70
2015,02,17,11,23,11.70
2015,02,17,11,24,11.70
2015,02,17,11,25,11.80
2015,02,17,11,26,11.80
2015,02,17,11,27,11.90
2015,02,17,11,28,11.90
2015,02,17,11,29,12.00
2015,02,17,11,30,12.00
2015,02,17,11,31,12.10
2015,02,17,11,32,12.10
2015,02,17,11,33,12.10
2015,02,17,11,34,12.20
2015,02,17,11,35,12.20
2015,02,17,11,36,12.20
2015,02,17,11,37,12.20
2015,02,17,11,38,12.20
2015,02,17,11,39,12.20
2015,02,17,11,40,12.20
2015,02,17,11,41,12.20
2015,02,17,11,42,12.10
2015,02,17,11,43,12.10
2015,02,17,11,44,12.10
2015,02,17,11,45,12.10
2015,02,17,11,46,12.20
2015,02,17,11,47,12.20
2015,02,17,11,48,12.20
2015,02,17,11,49,12.20
2015,02,17,11,50,12.30
2015,02,17,11,51,12.30
2015,02,17,11,52,12.30
2015,02,17,11,53,12.30
2015,02,17,11,54,12.30
2015,02,17,11,55,12.30
2015,02,17,11,56,12.30
2015,02,17,11,57,12.30
2015,02,17,11,58,12.30
2015,02,17,11,59,12.40
2015,02,17,12,00,12.40
2015,02,17,12,01,12.40
2015,02,17,12,02,12.30
2015,02,17,12,03,12.30
2015,02,17,12,04,12.30
2015,02,17,12,05,12.30
2015,02,17,12,06,12.30
2015,02,17,12,07,12.40
2015,02,17,12,08,12.40
2015,02,17,12,09,12.40
2015,02,17,12,10,12.40
2015,02,17,12,11,12.40
2015,02,17,12,12,12.30
2015,02,17,12,13,12.30
2015,02,17,12,14,12.30
2015,02,17,12,15,12.40
2015,02,17,12,16,12.40
2015,02,17,12,17,12.50
2015,02,17,12,18,12.60
2015,02,17,12,19,12.60
2015,02,17,12,20,12.60
2015,02,17,12,21,12.70
2015,02,17,12,22,12.70
2015,02,17,12,23,12.70
2015,02,17,12,24,12.60
2015,02,17,12,25,12.50
2015,02,17,12,26,12.50
2015,02,17,12,27,12.40
2015,02,17,12,28,12.40
2015,02,17,12,29,12.40
2015,02,17,12,30,12.50
2015,02,17,12,31,12.50
2015,02,17,12,32,12.60
2015,02,17,12,33,12.60
2015,02,17,12,34,12.70
2015,02,17,12,35,12.70
2015,02,17,12,36,12.70
2015,02,17,12,37,12.80
2015,02,17,12,38,12.80
2015,02,17,12,39,12.80
2015,02,17,12,40,12.80
2015,02,17,12,41,12.80
2015,02,17,12,42,12.80
2015,02,17,12,43,12.80
2015,02,17,12,44,12.80
2015,02,17,12,45,12.80
2015,02,17,12,46,12.80
2015,02,17,12,47,12.80
2015,02,17,12,48,12.80
2015,02,17,12,49,12.80
2015,02,17,12,50,12.80
2015,02,17,12,51,12.80
2015,02,17,12,52,12.80
2015,02,17,12,53,12.70
2015,02,17,12,54,12.70
2015,02,17,12,55,12.70
2015,02,17,12,56,12.80
2015,02,17,12,57,12.80
2015,02,17,12,58,12.90
2015,02,17,12,59,13.00
2015,02,17,13,00,13.00
2015,02,17,13,01,13.10
2015,02,17,13,02,13.00
2015,02,17,13,03,13.00
2015,02,17,13,04,12.90
2015,02,17,13,05,12.80
2015,02,17,13,06,12.70
2015,02,17,13,07,12.70
2015,02,17,13,08,12.70
2015,02,17,13,09,12.70
2015,02,17,13,10,12.80
2015,02,17,13,11,12.80
2015,02,17,13,12,12.80
2015,02,17,13,13,12.80
2015,02,17,13,14,12.80
2015,02,17,13,15,12.80
2015,02,17,13,16,12.70
2015,02,17,13,17,12.70
2015,02,17,13,18,12.80
2015,02,17,13,19,12.80
2015,02,17,13,20,12.90
2015,02,17,13,21,12.90
2015,02,17,13,22,12.90
2015,02,17,13,23,13.00
2015,02,17,13,24,13.00
2015,02,17,13,25,13.00
2015,02,17,13,26,13.00
2015,02,17,13,27,12.90
2015,02,17,13,28,12.90
2015,02,17,13,29,12.80
2015,02,17,13,30,12.80
2015,02,17,13,31,12.70
2015,02,17,13,32,12.70
2015,02,17,13,33,12.70
2015,02,17,13,34,12.70
2015,02,17,13,35,12.70
2015,02,17,13,36,12.70
2015,02,17,13,37,12.70
2015,02,17,13,38,12.70
2015,02,17,13,39,12.80
2015,02,17,13,40,12.80
2015,02,17,13,41,12.80
2015,02,17,13,42,12.90
2015,02,17,13,43,12.90
2015,02,17,13,44,12.90
2015,02,17,13,45,13.00
2015,02,17,13,46,13.00
2015,02,17,13,47,13.10
2015,02,17,13,48,13.20
2015,02,17,13,49,13.20
2015,02,17,13,50,13.20
2015,02,17,13,51,13.20
2015,02,17,13,52,13.20
2015,02,17,13,53,13.20
2015,02,17,13,54,13.30
2015,02,17,13,55,13.30
2015,02,17,13,56,13.40
2015,02,17,13,57,13.40
2015,02,17,13,58,13.40
2015,02,17,13,59,13.50
2015,02,17,14,00,13.60
2015,02,17,14,01,13.60
2015,02,17,14,02,13.70
2015,02,17,14,03,13.70
2015,02,17,14,04,13.70
2015,02,17,14,05,13.70
2015,02,17,14,06,13.70
2015,02,17,14,07,13.70
2015,02,17,14,08,13.70
2015,02,17,14,09,13.70
2015,02,17,14,10,13.80
2015,02,17,14,11,13.80
2015,02,17,14,12,13.90
2015,02,17,14,13,13.90
2015,02,17,14,14,13.80
2015,02,17,14,15,13.80
2015,02,17,14,16,13.80
2015,02,17,14,17,13.80
2015,02,17,14,18,13.80
2015,02,17,14,19,13.80
2015,02,17,14,20,13.90
2015,02,17,14,21,13.90
2015,02,17,14,22,14.00
2015,02,17,14,23,14.00
2015,02,17,14,24,14.10
2015,02,17,14,25,14.10
2015,02,17,14,26,14.10
2015,02,17,14,27,14.10
2015,02,17,14,28,14.10
2015,02,17,14,29,14.20
2015,02,17,14,30,14.10
2015,02,17,14,31,14.10
2015,02,17,14,32,14.10
2015,02,17,14,33,14.10
2015,02,17,14,34,14.10
2015,02,17,14,35,14.10
2015,02,17,14,36,14.20
2015,02,17,14,37,14.20
2015,02,17,14,38,14.20
2015,02,17,14,39,14.30
2015,02,17,14,40,14.30
2015,02,17,14,41,14.30
2015,02,17,14,42,14.40
2015,02,17,14,43,14.40
2015,02,17,14,44,14.40
2015,02,17,14,45,14.50
2015,02,17,14,46,14.50
2015,02,17,14,47,14.40
2015,02,17,14,48,14.30
2015,02,17,14,49,14.30
2015,02,17,14,50,14.30
2015,02,17,14,51,14.30
2015,02,17,14,52,14.30
2015,02,17,14,53,14.30
2015,02,17,14,54,14.20
2015,02,17,14,55,14.20
2015,02,17,14,56,14.10
2015,02,17,14,57,14.00
2015,02,17,14,58,14.00
2015,02,17,14,59,13.90
2015,02,17,15,00,13.90
2015,02,17,15,01,13.80
2015,02,17,15,02,13.80
2015,02,17,15,03,13.80
2015,02,17,15,04,13.70
2015,02,17,15,05,13.70
2015,02,17,15,06,13.80
2015,02,17,15,07,13.80
2015,02,17,15,08,13.70
2015,02,17,15,09,13.70
2015,02,17,15,10,13.70
2015,02,17,15,11,13.60
2015,02,17,15,12,13.60
2015,02,17,15,13,13.70
2015,02,17,15,14,13.70
2015,02,17,15,15,13.70
2015,02,17,15,16,13.70
2015,02,17,15,17,13.70
2015,02,17,15,18,13.70
2015,02,17,15,19,13.60
2015,02,17,15,20,13.60
2015,02,17,15,21,13.60
2015,02,17,15,22,13.60
2015,02,17,15,23,13.60
2015,02,17,15,24,13.60
2015,02,17,15,25,13.60
2015,02,17,15,26,13.60
2015,02,17,15,27,13.50
2015,02,17,15,28,13.40
2015,02,17,15,29,13.40
2015,02,17,15,30,13.40
2015,02,17,15,31,13.40
2015,02,17,15,32,13.40
2015,02,17,15,33,13.40
2015,02,17,15,34,13.40
2015,02,17,15,35,13.30
2015,02,17,15,36,13.30
2015,02,17,15,37,13.30
2015,02,17,15,38,13.20
2015,02,17,15,39,13.20
2015,02,17,15,40,13.20
2015,02,17,15,41,13.20
2015,02,17,15,42,13.20
2015,02,17,15,43,13.20
2015,02,17,15,44,13.20
2015,02,17,15,45,13.20
2015,02,17,15,46,13.20
2015,02,17,15,47,13.20
2015,02,17,15,48,13.10
2015,02,17,15,49,13.10
2015,02,17,15,50,13.00
2015,02,17,15,51,13.00
2015,02,17,15,52,13.00
2015,02,17,15,53,13.00
2015,02,17,15,54,13.00
2015,02,17,15,55,13.00
2015,02,17,15,56,13.10
2015,02,17,15,57,13.10
2015,02,17,15,58,13.10
2015,02,17,15,59,13.10
2015,02,17,16,00,13.10
2015,02,17,16,01,13.10
2015,02,17,16,02,13.00
2015,02,17,16,03,13.00
2015,02,17,16,04,12.90
2015,02,17,16,05,12.90
2015,02,17,16,06,12.90
2015,02,17,16,07,12.80
2015,02,17,16,08,12.80
2015,02,17,16,09,12.80
2015,02,17,16,10,12.80
2015,02,17,16,11,12.80
2015,02,17,16,12,12.70
2015,02,17,16,13,12.70
2015,02,17,16,14,12.70
2015,02,17,16,15,12.70
2015,02,17,16,16,12.80
2015,02,17,16,17,12.80
2015,02,17,16,18,12.90
2015,02,17,16,19,12.90
2015,02,17,16,20,13.00
2015,02,17,16,21,13.00
2015,02,17,16,22,12.90
2015,02,17,16,23,12.90
2015,02,17,16,24,12.80
2015,02,17,16,25,12.90
2015,02,17,16,26,12.90
2015,02,17,16,27,12.80
2015,02,17,16,28,12.80
2015,02,17,16,29,12.80
2015,02,17,16,30,12.80
2015,02,17,16,31,12.80
2015,02,17,16,32,12.80
2015,02,17,16,33,12.90
2015,02,17,16,34,12.90
2015,02,17,16,35,12.90
2015,02,17,16,36,12.90
2015,02,17,16,37,12.90
2015,02,17,16,38,12.90
2015,02,17,16,39,12.90
2015,02,17,16,40,12.90
2015,02,17,16,41,12.90
2015,02,17,16,42,12.90
2015,02,17,16,43,12.90
2015,02,17,16,44,12.80
2015,02,17,16,45,12.70
2015,02,17,16,46,12.70
2015,02,17,16,47,12.70
2015,02,17,16,48,12.70
2015,02,17,16,49,12.70
2015,02,17,16,50,12.70
2015,02,17,16,51,12.70
2015,02,17,16,52,12.70
2015,02,17,16,53,12.60
2015,02,17,16,54,12.60
2015,02,17,16,55,12.50
2015,02,17,16,56,12.50
2015,02,17,16,57,12.40
2015,02,17,16,58,12.40
2015,02,17,16,59,12.40
2015,02,17,17,00,12.30
2015,02,17,17,01,12.30
2015,02,17,17,02,12.30
2015,02,17,17,03,12.20
2015,02,17,17,04,12.20
2015,02,17,17,05,12.10
2015,02,17,17,06,12.10
2015,02,17,17,07,12.00
2015,02,17,17,08,11.90
2015,02,17,17,09,11.80
2015,02,17,17,10,11.80
2015,02,17,17,11,11.80
2015,02,17,17,12,11.70
2015,02,17,17,13,11.70
2015,02,17,17,14,11.70
2015,02,17,17,15,11.60
2015,02,17,17,16,11.60
2015,02,17,17,17,11.60
2015,02,17,17,18,11.50
2015,02,17,17,19,11.50
2015,02,17,17,20,11.50
2015,02,17,17,21,11.50
2015,02,17,17,22,11.40
2015,02,17,17,23,11.40
2015,02,17,17,24,11.30
2015,02,17,17,25,11.30
2015,02,17,17,26,11.30
2015,02,17,17,27,11.30
2015,02,17,17,28,11.20
2015,02,17,17,29,11.20
2015,02,17,17,30,11.10
2015,02,17,17,31,11.10
2015,02,17,17,32,11.10
2015,02,17,17,33,11.00
2015,02,17,17,34,11.00
2015,02,17,17,35,10.90
2015,02,17,17,36,10.90
2015,02,17,17,37,10.90
2015,02,17,17,38,10.90
2015,02,17,17,39,10.80
2015,02,17,17,40,10.80
2015,02,17,17,41,10.80
2015,02,17,17,42,10.80
2015,02,17,17,43,10.70